Conroe, TX

8:22 AM CST on February 10, 2016 (GMT -0600)
Montgomery County

Weather History for KCXO - April, 2014

Change the Weather History Date:

Thursday, April 10, 2014

  Actual Average Record
Temperature  
Mean Temperature 64 °F -  
Max Temperature 84 °F 75 °F 89 °F (2011)
Min Temperature 46 °F 53 °F 34 °F (2003)
Degree Days  
Heating Degree Days 1    
Growing Degree Days 14 (Base 50)    
Moisture  
Dew Point 53 °F    
Average Humidity 68    
Maximum Humidity 100    
Minimum Humidity 34    
Precipitation  
Precipitation 0.00 in - - ()
Sea Level Pressure  
Sea Level Pressure 30.08 in    
Wind  
Wind Speed 8 mph (SSE)    
Max Wind Speed 21 mph    
Max Gust Speed 28 mph    
Visibility 10 miles    
Events      
Averages and records for this station are not official NWS values.
T = Trace of Precipitation, MM = Missing Value Source: NWS Daily Summary

Daily Weather History Graph

Daily Weather History Graph

Search for Another Location

Airport or City:

Trip Planner

Search our weather history database for the weather conditions in past years. The results will help you decide how hot, cold, wet, or windy it might be!

Date:

Astronomy

Apr. 10, 2014 Rise Set
Actual Time 7:00 AM CDT 7:46 PM CDT
Civil Twilight 6:35 AM CDT 8:10 PM CDT
Nautical Twilight 6:06 AM CDT 8:39 PM CDT
Astronomical Twilight 5:37 AM CDT 9:08 PM CDT
Moon 3:47 PM CDT 4:05 AM CDT
Length of Visible Light 13h 34m
Length of Day
12h 46m
Waxing Gibbous, 80% of the Moon is Illuminated
Apr 10
Waxing Gibbous
Apr 15
Full
Apr 22
Last Quarter
Apr 29
New
May 6
First Quarter

Hourly Weather History & Observations

Time (CDT) Temp. Heat Index Dew Point Humidity Pressure Visibility Wind Dir Wind Speed Gust Speed Precip Events Conditions
12:53 AM 52.0 °F - 46.9 °F 83% 30.17 in 10.0 mi Calm Calm - N/A   Clear
1:53 AM 51.1 °F - 48.0 °F 89% 30.14 in 10.0 mi SE 5.8 mph - N/A   Clear
2:53 AM 52.0 °F - 48.0 °F 86% 30.13 in 10.0 mi SSE 3.5 mph - N/A   Clear
3:53 AM 48.9 °F - 46.9 °F 93% 30.12 in 10.0 mi Calm Calm - N/A   Clear
4:53 AM 48.0 °F - 46.0 °F 93% 30.10 in 10.0 mi Calm Calm - N/A   Clear
5:53 AM 46.9 °F - 45.0 °F 93% 30.10 in 10.0 mi SE 3.5 mph - N/A   Clear
6:53 AM 51.1 °F - 50.0 °F 96% 30.10 in 10.0 mi SE 5.8 mph - 0.00 in   Clear
7:53 AM 51.1 °F - 51.1 °F 100% 30.12 in 6.0 mi Calm Calm - N/A   Clear
9:53 AM 66.0 °F - 57.9 °F 75% 30.13 in 10.0 mi South 17.3 mph 26.5 mph N/A   Clear
10:53 AM 73.9 °F - 57.0 °F 55% 30.14 in 10.0 mi South 17.3 mph 24.2 mph N/A   Clear
11:53 AM 78.1 °F - 57.0 °F 48% 30.13 in 10.0 mi SSW 16.1 mph 21.9 mph N/A   Clear
12:53 PM 79.0 °F - 55.0 °F 44% 30.10 in 10.0 mi South 17.3 mph 24.2 mph N/A   Clear
1:53 PM 82.0 °F 81.2 °F 53.1 °F 37% 30.08 in 10.0 mi South 17.3 mph 27.6 mph N/A   Clear
2:53 PM 82.9 °F 81.8 °F 53.1 °F 36% 30.05 in 10.0 mi SSE 18.4 mph - N/A   Clear
3:53 PM 82.9 °F - 52.0 °F 34% 30.03 in 10.0 mi SSE 20.7 mph 27.6 mph N/A   Clear
4:53 PM 82.0 °F - 52.0 °F 35% 30.01 in 10.0 mi South 15.0 mph 27.6 mph N/A   Clear
5:53 PM 79.0 °F - 53.1 °F 40% 30.00 in 10.0 mi SSE 17.3 mph - N/A   Clear
6:53 PM 75.9 °F - 53.1 °F 45% 30.01 in 10.0 mi SSE 17.3 mph 26.5 mph N/A   Clear
7:53 PM 71.1 °F - 55.9 °F 59% 30.02 in 10.0 mi SSE 16.1 mph - N/A   Clear
8:53 PM 68.0 °F - 57.0 °F 68% 30.03 in 10.0 mi SSE 11.5 mph - N/A   Clear
9:53 PM 66.0 °F - 57.9 °F 75% 30.06 in 10.0 mi SSE 13.8 mph - N/A   Clear
10:53 PM 64.0 °F - 57.9 °F 80% 30.06 in 10.0 mi SSE 11.5 mph - N/A   Clear
11:53 PM 61.0 °F - 57.9 °F 90% 30.05 in 10.0 mi SSE 6.9 mph - N/A   Clear